sat.trackr.live / text

‹ back to catalog

STARLINK-36690

NORAD 67913 · 2026-036K

PAYLOAD ACTIVE UNKNOWN

§ Identity

Operator
Country
US
Launch date
2026-02-22
Launch site
AFETR
Launch vehicle
Mass (kg)
RCS (m²)

Purposes: comms

External: N2YO · Heavens-Above · Gunter

§ Orbital elements

Epoch: 2026-09-19T15:08:02.556096Z

Period
94.27 min
Inclination
43.0010°
Eccentricity
0.0000341
Mean motion
15.27580015 rev/d
Perigee alt
482.8 km
Apogee alt
483.3 km
Semi-major
6,861.2 km
B*
2.6010e-4
RAAN
229.9183°
Arg perigee
310.9857°
Mean anomaly
49.0965°
Rev number
3,338

§ Raw data

STARLINK-366901 67913U 26036K   26262.63058514  .00006902  00000+0  26010-3 0  99912 67913  43.0010 229.9183 0000341 310.9857  49.0965 15.27580015 33385

JSON: /api/v1/satellites/67913 · /tle

For live sub-satellite position, see the globe view (requires WebGL).

§ Visibility from observer

Set your observer location to see the next 7 days of passes ≥ 10°. The values pass through the URL so the page stays shareable.

No JS? Fill the form by hand. The geolocation button needs JavaScript.